FREGAT DEB (TANK), 41108

Orbit data source: Space-Track

FREGAT DEB (TANK), 41108 is space debris in LEO originally from a launch on Fri, 11 Dec 2015 UTC launched from the Tyuratam Missile And Space Complex (TTMTR). Debris objects in space refer to the collection of defunct objects orbiting the Earth. Examples of debris include non-operational satellites, rocket bodies, and fragments generated from explosions, collisions, or faulty payload assembly.

Loading next visibility...
FREGAT DEB (TANK) details
Identifier
41108, 2015-074D
Orbit
LEO
Last TLE update15 hours ago
Origin
Flag of CISLavochkin (CIS)
ManufacturerLavochkin
MissionSpacecraft
Bus & MotorFREGAT SBB, Unknown motor
Mass360 kg wet, 360 kg dry
Launch date (UTC)
2015-12-11 (9 years ago)
Launch vehicleUnknown
Launch site
Tyuratam Missile And Space Complex (TTMTR)
Object type
Payload
Rocket body
Debris
Shape & HBRTorus, 3.9 m
Radar Cross Section6.703 m², Large (>1 m²)

Expand to show TLE details & history

TLE from 15 hours ago
0 FREGAT DEB (TANK)
1 41108U 15074D   24360.92736558  .00067367  61475-5  11394-2 0  9998
2 41108  50.3196 238.7540 1420502 143.3122 227.4045 12.75543236378908
Epoch: 2024-12-25T22:15Z
Definitive object data (Epoch: 2024-12-25T22:15:24.386Z)
Latitude-0.00003°
Longitude169.98828°
Altitude2,177.308 km
Speed6.458 km/s
True Right ascension15h 55m 00s
True Declination0° 00' 00"
Sunlit
Object was in daylight at TLE epoch
Visualization TLE readout
Latitude41.91358°
Longitude-144.36206°
Altitude1,115.823 km
Speed7.415 km/s
Apparent Right ascension21h 43m 45s
Apparent Declination7° 02' 44"
Sunlit
Object is in daylight
Visualization observer readout
Local Sidereal Time13:00:08
Azimuth55.734° ENE
Elevation-24.816°
Doppler factor1
Orbital elements
Apogee altitude2,459.319 km
Perigee altitude260.882 km
Semi-major axis7,738.238 km
Eccentricity0.1420502
Inclination50.3196°
RAAN238.754°
Arg. of periapsis143.3122°
True anomaly216.77201°
Mean anomaly227.4045°
Eccentric anomaly221.96249°
Mean motion3.18845 °/min
BSTAR0.0011394
Orbital period112.91 mins
Loading maneuver chart data...
Loading historical data...
Loading historical data...
Loading historical data...
Loading historical data...
Loading historical data...
Loading historical data...
Loading historical data...

FREGAT DEB (TANK) Visibility forecast

Observer location: undefined°, undefined

Span
Click to sort rows by Start time (UTC) header in descending order
Start Az.
Max El. time (UTC)
Max El. Az.
Max El.
End time (UTC)
End Az.
15 mins2024-12-26 17:08:26.262Z186.196° SSW2024-12-26 17:17:26.262Z131.331° SE26.758°2024-12-26 17:23:26.262Z78.256° E
14 mins2024-12-26 19:07:26.262Z232.903° WSW2024-12-26 19:15:26.262Z233.856° WSW44.752°2024-12-26 19:21:26.262Z55.405° ENE
9 mins2024-12-26 21:09:26.262Z282.585° WNW2024-12-26 21:14:26.262Z340.846° N28.657°2024-12-26 21:18:26.262Z43.646° NE
4 mins2024-12-26 23:11:26.262Z328.989° NNW2024-12-26 23:13:26.262Z5.552° NNE19.443°2024-12-26 23:15:26.262Z47.328° ENE
|